When you browse on this site, cookies collect data to enhance your experience and personalize the content and advertising you see.
Visit our Privacy Policy to learn more. By continuing to use the site, you agree to this use of cookies and data.
EN

Hourly Weather Bururi

Today, 25 September, Friday

Time Temperature Precipitation Wind Pressure Humidity
00:00 +20°C° 0 mm 1 mps 616 mmHg 59%
01:00 +20°C° 0 mm 1 mps 616 mmHg 59%
02:00 +19°C° 0 mm 1 mps 616 mmHg 59%
03:00 +19°C° 0 mm 1 mps 616 mmHg 60%
04:00 +19°C° 0 mm 1 mps 616 mmHg 61%
05:00 +19°C° 0 mm 1 mps 616 mmHg 62%
06:00 +20°C° 0 mm 1 mps 617 mmHg 59%
07:00 +21°C° 0 mm 2 mps 618 mmHg 55%
08:00 +23°C° 0 mm 2 mps 619 mmHg 51%
09:00 +24°C° 0 mm 3 mps 619 mmHg 48%
10:00 +25°C° 0 mm 3 mps 619 mmHg 45%
11:00 +26°C° 0 mm 3 mps 619 mmHg 43%
12:00 +26°C° 0 mm 3 mps 618 mmHg 43%
13:00 +26°C° 0 mm 3 mps 617 mmHg 43%
14:00 +26°C° 0 mm 3 mps 616 mmHg 43%
15:00 +25°C° 0 mm 2 mps 616 mmHg 45%
16:00 +25°C° 0 mm 2 mps 616 mmHg 46%
17:00 +25°C° 0 mm 2 mps 616 mmHg 48%
18:00 +23°C° 0 mm 1 mps 616 mmHg 53%
19:00 +22°C° 0 mm 1 mps 616 mmHg 58%
20:00 +20°C° 0 mm 1 mps 616 mmHg 63%
21:00 +20°C° 0 mm 1 mps 616 mmHg 62%
22:00 +20°C° 0 mm 1 mps 616 mmHg 61%
23:00 +19°C° 0 mm 1 mps 616 mmHg 60%

Tomorrow, 26 September, Saturday

Time Temperature Precipitation Wind Pressure Humidity
00:00 +19°C° 0 mm 1 mps 616 mmHg 62%
01:00 +19°C° 0 mm 1 mps 615 mmHg 65%
02:00 +18°C° 0 mm 1 mps 615 mmHg 67%
03:00 +18°C° 0 mm 1 mps 615 mmHg 68%
04:00 +18°C° 0 mm 1 mps 615 mmHg 69%
05:00 +18°C° 0 mm 1 mps 615 mmHg 69%
06:00 +20°C° 0 mm 1 mps 616 mmHg 62%
07:00 +22°C° 0 mm 1 mps 617 mmHg 55%
08:00 +24°C° 0 mm 1 mps 618 mmHg 48%
09:00 +25°C° 0 mm 2 mps 618 mmHg 46%
10:00 +26°C° 0 mm 2 mps 618 mmHg 44%
11:00 +26°C° 0 mm 3 mps 618 mmHg 42%
12:00 +25°C° 0.1 mm 3 mps 616 mmHg 48%
13:00 +24°C° 0.1 mm 3 mps 615 mmHg 53%
14:00 +24°C° 0.1 mm 3 mps 614 mmHg 59%
15:00 +22°C° 0.1 mm 3 mps 614 mmHg 59%
16:00 +23°C° 0.1 mm 2 mps 614 mmHg 60%
17:00 +23°C° 0.1 mm 2 mps 614 mmHg 61%
18:00 +22°C° 0.1 mm 1 mps 614 mmHg 64%
19:00 +21°C° 0.1 mm 1 mps 614 mmHg 67%
20:00 +20°C° 0.1 mm 1 mps 615 mmHg 71%
21:00 +20°C° 0 mm 1 mps 615 mmHg 69%
22:00 +19°C° 0 mm 1 mps 615 mmHg 68%
23:00 +19°C° 0 mm 1 mps 615 mmHg 66%

Day after tomorrow, 27 September, Sunday

Time Temperature Precipitation Wind Pressure Humidity
00:00 +19°C° 0 mm 1 mps 615 mmHg 67%
01:00 +18°C° 0 mm 1 mps 614 mmHg 69%
02:00 +18°C° 0 mm 1 mps 614 mmHg 70%
03:00 +18°C° 0 mm 1 mps 614 mmHg 71%
04:00 +18°C° 0 mm 1 mps 614 mmHg 72%
05:00 +18°C° 0 mm 1 mps 614 mmHg 73%
06:00 +20°C° 0 mm 1 mps 615 mmHg 66%
07:00 +22°C° 0 mm 1 mps 616 mmHg 58%
08:00 +22°C° 0 mm 0 mps 618 mmHg 51%
09:00 +26°C° 0 mm 1 mps 618 mmHg 47%
10:00 +27°C° 0 mm 2 mps 618 mmHg 43%
11:00 +28°C° 0 mm 2 mps 618 mmHg 38%
12:00 +27°C° 0.2 mm 2 mps 617 mmHg 44%
13:00 +26°C° 0.2 mm 2 mps 615 mmHg 50%
14:00 +24°C° 0.2 mm 3 mps 614 mmHg 55%
15:00 +24°C° 0.5 mm 2 mps 614 mmHg 59%
16:00 +23°C° 0.5 mm 2 mps 614 mmHg 62%
17:00 +22°C° 0.5 mm 1 mps 614 mmHg 66%
18:00 +22°C° 0.2 mm 1 mps 614 mmHg 68%
19:00 +21°C° 0.2 mm 1 mps 615 mmHg 71%
20:00 +20°C° 0.2 mm 1 mps 615 mmHg 73%
21:00 +20°C° 0.2 mm 1 mps 615 mmHg 74%
22:00 +20°C° 0.2 mm 1 mps 615 mmHg 75%
23:00 +19°C° 0.2 mm 1 mps 615 mmHg 76%

28 September, Monday

Time Temperature Precipitation Wind Pressure Humidity
00:00 +19°C° 0.5 mm 1 mps 615 mmHg 77%
01:00 +19°C° 0.5 mm 1 mps 615 mmHg 77%
02:00 +19°C° 0.5 mm 1 mps 615 mmHg 77%
03:00 +18°C° 0 mm 1 mps 615 mmHg 77%
04:00 +18°C° 0 mm 1 mps 615 mmHg 78%
05:00 +18°C° 0 mm 1 mps 615 mmHg 78%
06:00 +20°C° 0 mm 1 mps 616 mmHg 72%
07:00 +22°C° 0 mm 1 mps 617 mmHg 65%
08:00 +23°C° 0 mm 1 mps 618 mmHg 58%
09:00 +24°C° 0.2 mm 1 mps 618 mmHg 55%
10:00 +25°C° 0.2 mm 2 mps 618 mmHg 51%
11:00 +27°C° 0.2 mm 2 mps 618 mmHg 48%
12:00 +26°C° 0.6 mm 2 mps 617 mmHg 49%
13:00 +26°C° 0.6 mm 2 mps 616 mmHg 50%
14:00 +25°C° 0.6 mm 2 mps 615 mmHg 50%
15:00 +25°C° 0.6 mm 2 mps 615 mmHg 55%
16:00 +24°C° 0.6 mm 1 mps 615 mmHg 59%
17:00 +23°C° 0.6 mm 1 mps 615 mmHg 64%
18:00 +22°C° 0.8 mm 1 mps 615 mmHg 68%
19:00 +21°C° 0.8 mm 1 mps 615 mmHg 73%
20:00 +20°C° 0.8 mm 1 mps 616 mmHg 77%
21:00 +20°C° 0.2 mm 1 mps 616 mmHg 77%
22:00 +19°C° 0.2 mm 1 mps 616 mmHg 77%
23:00 +19°C° 0.2 mm 1 mps 616 mmHg 77%

29 September, Tuesday

Time Temperature Precipitation Wind Pressure Humidity
00:00 +19°C° 0.1 mm 1 mps 616 mmHg 77%
01:00 +19°C° 0.1 mm 1 mps 615 mmHg 77%
02:00 +18°C° 0.1 mm 1 mps 615 mmHg 77%
03:00 +18°C° 0 mm 1 mps 615 mmHg 77%
04:00 +18°C° 0 mm 1 mps 615 mmHg 77%
05:00 +18°C° 0 mm 1 mps 615 mmHg 77%
06:00 +20°C° 0.3 mm 1 mps 616 mmHg 72%
07:00 +21°C° 0.3 mm 1 mps 617 mmHg 67%
08:00 +23°C° 0.3 mm 1 mps 618 mmHg 62%
09:00 +23°C° 0.8 mm 1 mps 618 mmHg 60%
10:00 +24°C° 0.8 mm 1 mps 618 mmHg 59%
11:00 +25°C° 0.8 mm 2 mps 618 mmHg 57%
12:00 +25°C° 1.1 mm 2 mps 617 mmHg 56%
13:00 +25°C° 1.1 mm 2 mps 616 mmHg 55%
14:00 +25°C° 1.1 mm 2 mps 615 mmHg 54%
15:00 +25°C° 0.4 mm 2 mps 615 mmHg 58%
16:00 +24°C° 0.4 mm 2 mps 615 mmHg 61%
17:00 +23°C° 0.4 mm 2 mps 615 mmHg 64%
18:00 +21°C° 0.5 mm 2 mps 615 mmHg 69%
19:00 +21°C° 0.5 mm 1 mps 615 mmHg 74%
20:00 +20°C° 0.5 mm 1 mps 615 mmHg 79%
21:00 +20°C° 0.2 mm 1 mps 615 mmHg 78%
22:00 +19°C° 0.2 mm 1 mps 615 mmHg 77%
23:00 +19°C° 0.2 mm 1 mps 616 mmHg 76%

30 September, Wednesday

Time Temperature Precipitation Wind Pressure Humidity
00:00 +19°C° 0.1 mm 1 mps 615 mmHg 76%
01:00 +19°C° 0.1 mm 1 mps 615 mmHg 77%
02:00 +18°C° 0.1 mm 1 mps 614 mmHg 77%
03:00 +18°C° 0 mm 1 mps 614 mmHg 77%
04:00 +18°C° 0 mm 1 mps 614 mmHg 78%
05:00 +18°C° 0 mm 1 mps 615 mmHg 79%
06:00 +19°C° 0.1 mm 1 mps 616 mmHg 74%
07:00 +21°C° 0.1 mm 1 mps 616 mmHg 69%
08:00 +22°C° 0.1 mm 1 mps 617 mmHg 64%
09:00 +23°C° 0.9 mm 1 mps 617 mmHg 62%
10:00 +24°C° 0.9 mm 1 mps 617 mmHg 60%
11:00 +25°C° 0.9 mm 2 mps 617 mmHg 58%
12:00 +25°C° 1.7 mm 2 mps 616 mmHg 59%
13:00 +25°C° 1.7 mm 2 mps 616 mmHg 59%
14:00 +25°C° 1.7 mm 2 mps 615 mmHg 60%
15:00 +24°C° 1.3 mm 2 mps 614 mmHg 63%
16:00 +23°C° 1.3 mm 2 mps 614 mmHg 66%
17:00 +23°C° 1.3 mm 1 mps 614 mmHg 69%
18:00 +22°C° 0.5 mm 1 mps 614 mmHg 72%
19:00 +21°C° 0.5 mm 1 mps 614 mmHg 74%
20:00 +20°C° 0.5 mm 1 mps 614 mmHg 77%
21:00 +20°C° 0 mm 1 mps 614 mmHg 76%
22:00 +19°C° 0 mm 1 mps 615 mmHg 75%
23:00 +19°C° 0 mm 1 mps 615 mmHg 73%
Show more